KJ4AJP Weather Reports


Display with metric or nautical units.
time (UTC)temp
F
wind
direction
speed
MPH
gust
MPH
rain 1hr
in
rain 24hr
in
rain mn
in
humidity
%
barometer
mb
20260506084736 50 54 0.0 1.0 0.00 0.13 0.13 98 1009.8
20260506084233 50 52 0.0 0.0 0.00 0.13 0.13 98 1009.6
20260506083730 50 63 0.0 0.0 0.00 0.13 0.13 98 1009.7
20260506083228 50 47 0.0 1.0 0.07 0.13 0.13 98 1009.9
20260506082725 50 46 1.0 1.0 0.07 0.13 0.13 98 1010.1
20260506082220 50 64 0.0 0.0 0.00 0.12 0.12 98 1010.0
20260506081718 50 44 0.0 0.0 0.00 0.12 0.12 98 1009.6
20260506081215 50 44 1.0 1.0 0.00 0.12 0.12 98 1009.5
20260506080714 50 57 0.0 1.0 0.00 0.12 0.12 98 1009.9
20260506080210 50 83 1.0 1.0 0.00 0.12 0.12 98 1009.6
20260506073154 51 24 2.0 3.0 0.00 0.12 0.12 98 1009.8
20260506072650 51 29 1.0 3.0 0.00 0.12 0.12 98 1009.6
20260506072148 51 70 1.0 1.0 0.07 0.12 0.12 98 1010.4
20260506071645 51 45 0.0 1.0 0.07 0.12 0.12 98 1009.6
20260506071143 51 58 0.0 0.0 0.00 0.11 0.11 98 1009.9
20260506070640 51 54 0.0 0.0 0.00 0.11 0.11 98 1010.0
20260506070137 51 42 1.0 1.0 0.00 0.11 0.11 98 1009.9
20260506062114 52 53 0.0 0.0 0.00 0.08 0.08 98 1008.9
20260506061610 52 47 1.0 1.0 0.24 0.08 0.08 98 1008.7
20260506061108 52 43 0.0 0.0 0.24 0.08 0.08 98 1009.2
20260506060606 52 77 1.0 2.0 0.12 0.05 0.05 98 1009.1
20260506051035 53 70 1.0 1.0 0.00 0.00 0.00 97 1008.1
20260506050533 53 75 0.0 0.0 0.00 0.00 0.00 98 1008.5
20260506045023 53 45 1.0 1.0 0.00 1.01 1.01 97 1008.4
20260506044521 54 42 1.0 1.0 0.00 1.01 1.01 97 1008.3
20260506044018 54 58 0.0 1.0 0.07 1.01 1.01 97 1008.1
20260506043515 54 44 1.0 1.0 0.14 1.01 1.01 97 1008.2
20260506043013 54 53 0.0 0.0 0.19 1.00 1.00 96 1008.0
20260506042512 55 76 1.0 1.0 0.59 0.99 0.99 96 1008.1
20260506042010 57 64 0.0 0.0 0.66 0.98 0.98 96 1008.4
20260506041508 57 33 2.0 2.0 0.66 0.89 0.89 96 1008.4
20260506041004 58 58 0.0 0.0 0.59 0.86 0.86 96 1008.0
20260506040502 58 41 1.0 1.0 0.54 0.80 0.80 96 1007.9
20260506035958 59 72 0.0 0.0 0.42 0.76 0.76 96 1007.7
20260506035455 60 35 1.0 1.0 0.19 0.72 0.72 95 1008.3
20260506034951 60 49 0.0 1.0 0.07 0.70 0.70 95 1007.5
20260506034449 62 46 1.0 1.0 0.05 0.69 0.69 94 1007.5
20260506033946 63 12 2.0 2.0 0.12 0.69 0.69 95 1007.6
20260506033444 65 348 1.0 2.0 0.31 0.68 0.68 95 1007.5
20260506032940 66 24 1.0 2.0 1.13 0.67 0.67 96 1007.2
20260506032437 66 32 2.0 2.0 0.97 0.64 0.64 95 1006.5
20260506031933 66 49 0.0 0.0 0.12 0.49 0.49 95 1007.3
20260506031431 66 261 2.0 3.0 0.07 0.48 0.48 94 1006.4
20260506030929 66 33 1.0 2.0 0.00 0.47 0.47 95 1006.2
20260506030427 66 47 1.0 1.0 0.00 0.47 0.47 96 1006.3
20260506025923 65 277 3.0 6.0 0.00 0.47 0.47 96 1006.4
20260506025420 65 51 1.0 1.0 0.00 0.47 0.47 96 1006.0
20260506024917 65 257 2.0 3.0 0.00 0.47 0.47 97 1006.1
20260506024414 65 43 3.0 3.0 0.00 0.47 0.47 97 1006.2
20260506023909 65 79 1.0 1.0 0.00 0.47 0.47 97 1006.0
20260506023407 64 249 1.0 2.0 0.00 0.47 0.47 97 1006.3
20260506022903 64 56 0.0 0.0 0.00 0.47 0.47 97 1006.2
20260506022401 64 55 0.0 1.0 0.00 0.47 0.47 97 1006.3
20260506021859 64 57 0.0 1.0 0.00 0.47 0.47 97 1006.2
20260506021355 64 71 1.0 1.0 0.00 0.47 0.47 97 1006.3
20260506020852 64 30 2.0 2.0 0.00 0.47 0.47 98 1006.3
20260506020350 64 65 1.0 1.0 0.00 0.47 0.47 98 1006.2
20260506015847 64 17 1.0 1.0 0.00 0.47 0.47 98 1006.3
20260506015345 64 30 1.0 2.0 0.00 0.47 0.47 98 1006.1
20260506014841 64 62 0.0 0.0 0.00 0.47 0.47 98 1006.2
20260506014338 64 331 1.0 1.0 0.00 0.47 0.47 98 1006.3
20260506013835 64 36 0.0 0.0 0.00 0.47 0.47 98 1006.1
20260506013333 64 58 2.0 2.0 0.00 0.47 0.47 98 1005.9
20260506012829 64 6 0.0 0.0 0.00 0.47 0.47 98 1006.0
20260506012326 64 301 2.0 2.0 0.00 0.47 0.47 98 1006.4
20260506011823 64 38 0.0 1.0 0.00 0.47 0.47 98 1006.4
20260506011320 63 302 2.0 2.0 0.00 0.47 0.47 98 1006.2
20260506010817 63 38 1.0 1.0 0.00 0.47 0.47 98 1006.0
20260506010315 63 57 0.0 1.0 0.00 0.47 0.47 98 1006.0
20260506005812 63 61 0.0 0.0 0.00 0.47 0.47 98 1006.1
20260506005308 63 84 1.0 2.0 0.00 0.47 0.47 98 1006.1
20260506004805 63 56 0.0 0.0 0.00 0.47 0.47 98 1006.0
20260506004302 63 54 0.0 0.0 0.05 0.47 0.47 98 1006.2
20260506003759 63 279 2.0 2.0 0.05 0.47 0.47 98 1006.2
20260506003255 63 81 1.0 2.0 0.00 0.46 0.46 98 1006.4
20260506002751 63 61 0.0 1.0 0.00 0.46 0.46 98 1006.4
20260506002247 63 49 0.0 0.0 0.07 0.46 0.46 98 1006.7
20260506001743 63 58 0.0 0.0 0.07 0.46 0.46 98 1006.5
20260506001241 63 61 0.0 1.0 0.00 0.45 0.45 98 1006.4
20260506000737 63 45 0.0 1.0 0.00 0.45 0.45 98 1006.5
20260506000235 63 38 0.0 1.0 0.00 0.45 0.45 98 1006.4
20260505235732 63 45 0.0 0.0 0.00 0.45 0.45 98 1006.4
20260505235230 63 31 1.0 2.0 0.00 0.45 0.45 98 1006.5
20260505234726 63 68 0.0 1.0 0.05 0.45 0.45 98 1006.6
20260505234224 63 53 1.0 2.0 0.05 0.45 0.45 98 1006.9
20260505233720 63 67 0.0 0.0 0.00 0.44 0.44 98 1006.9
20260505233218 63 123 2.0 2.0 0.00 0.44 0.44 98 1006.9
20260505232715 63 323 1.0 2.0 0.00 0.44 0.44 97 1006.9
20260505232213 63 36 0.0 1.0 0.00 0.44 0.44 97 1006.9
20260505231709 63 44 2.0 2.0 0.00 0.44 0.44 97 1006.9
20260505231208 63 65 1.0 2.0 0.00 0.44 0.44 97 1006.9
20260505230706 63 145 1.0 3.0 0.00 0.44 0.44 97 1007.2
20260505230202 63 79 1.0 2.0 0.00 0.44 0.44 97 1007.4
20260505225659 63 37 0.0 1.0 0.00 0.44 0.44 97 1007.0
20260505225155 64 277 2.0 3.0 0.07 0.44 0.44 97 1007.0
20260505224651 63 301 4.0 4.0 0.07 0.44 0.44 97 1006.9
20260505224149 63 54 1.0 2.0 0.00 0.43 0.43 97 1007.0
20260505223646 64 26 1.0 1.0 0.05 0.43 0.43 97 1007.2
20260505223142 64 11 1.0 1.0 0.05 0.43 0.43 97 1007.2
20260505222638 63 153 2.0 3.0 0.00 0.42 0.42 97 1007.4
20260505222135 63 346 2.0 2.0 0.00 0.42 0.42 97 1007.4
20260505221632 63 12 2.0 3.0 0.07 0.42 0.42 97 1007.5
20260505221128 63 223 2.0 6.0 0.07 0.42 0.42 97 1007.7
20260505220626 63 236 3.0 4.0 0.05 0.41 0.41 97 1007.5
20260505220124 63 317 2.0 2.0 0.05 0.41 0.41 97 1007.4
20260505215621 63 38 2.0 3.0 0.00 0.40 0.40 97 1007.7
20260505215119 63 330 1.0 2.0 0.00 0.40 0.40 97 1007.6
20260505214617 63 47 2.0 3.0 0.07 0.40 0.40 97 1007.5
20260505214114 63 34 1.0 1.0 0.07 0.40 0.40 97 1007.7
20260505213611 63 299 2.0 3.0 0.00 0.39 0.39 97 1007.5
20260505213108 63 339 2.0 3.0 0.05 0.39 0.39 97 1007.7
20260505212604 63 57 0.0 0.0 0.05 0.39 0.39 97 1007.6
20260505212102 63 336 3.0 3.0 0.07 0.38 0.38 97 1007.5
20260505211558 63 68 1.0 1.0 0.07 0.38 0.38 96 1007.6
20260505211055 63 253 4.0 7.0 0.07 0.37 0.37 96 1007.6
20260505210551 63 76 3.0 3.0 0.07 0.37 0.37 96 1008.0
20260505210049 63 278 3.0 8.0 0.05 0.36 0.36 96 1007.7
20260505205547 63 42 3.0 4.0 0.05 0.36 0.36 95 1007.8
20260505205044 64 18 2.0 4.0 0.00 0.35 0.35 95 1007.8
20260505204541 64 332 2.0 2.0 0.00 0.35 0.35 95 1007.6
20260505204038 64 128 1.0 2.0 0.00 0.35 0.35 94 1007.7
20260505203535 64 225 4.0 6.0 0.00 0.35 0.35 94 1007.6
20260505203032 64 14 2.0 2.0 0.00 0.35 0.35 94 1007.6
20260505202528 64 289 3.0 4.0 0.00 0.35 0.35 94 1007.7
20260505202024 64 114 1.0 2.0 0.00 0.35 0.35 94 1007.9
20260505201521 64 70 2.0 3.0 0.00 0.35 0.35 94 1007.8
20260505201019 64 264 2.0 7.0 0.00 0.35 0.35 95 1007.5
20260505200517 64 256 3.0 4.0 0.00 0.35 0.35 95 1007.8
20260505200013 64 296 2.0 3.0 0.00 0.35 0.35 94 1007.7
20260505195509 65 66 1.0 1.0 0.07 0.35 0.35 94 1007.6
20260505195007 65 147 1.0 3.0 0.12 0.35 0.35 93 1007.7
20260505194504 65 71 2.0 2.0 0.12 0.34 0.34 93 1007.7
20260505194004 66 226 1.0 2.0 0.07 0.33 0.33 93 1007.6
20260505193502 66 4 2.0 3.0 0.00 0.32 0.32 92 1007.6
20260505192959 66 1 5.0 6.0 0.00 0.32 0.32 91 1007.6
20260505192458 66 29 2.0 2.0 0.00 0.32 0.32 91 1007.9
20260505191954 66 69 1.0 1.0 0.00 0.32 0.32 91 1007.8
20260505191453 66 336 3.0 4.0 0.00 0.32 0.32 91 1008.1
20260505190950 65 35 0.0 1.0 0.00 0.32 0.32 91 1007.7
20260505190445 65 77 2.0 2.0 0.00 0.32 0.32 92 1008.0
20260505185940 65 152 2.0 2.0 0.00 0.32 0.32 92 1008.1
20260505185438 65 189 2.0 2.0 0.00 0.32 0.32 93 1008.3
20260505184934 64 98 2.0 3.0 0.00 0.32 0.32 95 1008.0
20260505184431 64 35 0.0 1.0 0.00 0.32 0.32 95 1008.1
20260505183928 64 74 0.0 1.0 0.00 0.32 0.32 95 1008.1
20260505183425 63 88 2.0 2.0 0.00 0.32 0.32 95 1008.4
20260505182921 63 41 1.0 1.0 0.00 0.32 0.32 95 1008.5
20260505182418 63 260 2.0 3.0 0.00 0.32 0.32 95 1008.7
20260505181915 63 64 1.0 1.0 0.05 0.32 0.32 94 1008.9
20260505181412 63 53 2.0 2.0 0.05 0.32 0.32 94 1008.9
20260505180909 63 306 2.0 2.0 0.00 0.31 0.31 94 1009.1
20260505180405 63 24 0.0 1.0 0.07 0.31 0.31 94 1009.1
20260505175902 63 43 1.0 1.0 0.12 0.31 0.31 94 1009.0
20260505175358 63 167 0.0 0.0 0.17 0.30 0.30 94 1009.2
20260505174854 63 352 0.0 1.0 0.12 0.29 0.29 93 1009.2
20260505174352 63 68 1.0 1.0 0.12 0.28 0.28 93 1009.1
20260505173848 63 58 1.0 2.0 0.07 0.27 0.27 92 1009.0
20260505173345 63 144 1.0 1.0 0.00 0.26 0.26 91 1009.5
20260505172842 63 77 1.0 1.0 0.00 0.26 0.26 91 1009.2
20260505172340 63 58 0.0 1.0 0.00 0.26 0.26 91 1009.2
20260505171839 63 70 2.0 2.0 0.00 0.26 0.26 90 1009.5
20260505171336 63 36 1.0 1.0 0.00 0.26 0.26 90 1009.3
20260505170833 64 39 1.0 1.0 0.00 0.26 0.26 89 1009.3
20260505170329 63 53 0.0 1.0 0.00 0.26 0.26 90 1009.4
20260505165825 63 48 0.0 1.0 0.00 0.26 0.26 90 1009.5
20260505165321 63 314 1.0 2.0 0.00 0.26 0.26 90 1009.5
20260505164816 63 51 1.0 2.0 0.00 0.26 0.26 91 1009.5
20260505164314 63 32 1.0 1.0 0.00 0.26 0.26 91 1009.7
20260505163812 63 29 1.0 2.0 0.00 0.26 0.26 91 1009.5
20260505163310 63 350 1.0 2.0 0.00 0.26 0.26 91 1009.5
20260505162808 63 2 0.0 1.0 0.00 0.26 0.26 91 1009.7
20260505162306 63 54 0.0 1.0 0.00 0.26 0.26 91 1010.0
20260505161801 63 65 1.0 1.0 0.00 0.26 0.26 91 1009.7
20260505161258 63 163 3.0 3.0 0.00 0.26 0.26 90 1009.8
20260505160756 63 260 2.0 4.0 0.00 0.26 0.26 90 1009.6
20260505160253 63 54 1.0 1.0 0.00 0.26 0.26 90 1009.8
20260505153232 62 96 1.0 1.0 0.00 0.26 0.26 92 1009.5
20260505152730 62 40 1.0 2.0 0.00 0.26 0.26 93 1009.7
20260505152226 61 64 0.0 0.0 0.00 0.26 0.26 94 1009.5
20260505151726 61 70 1.0 2.0 0.00 0.26 0.26 94 1009.5
20260505151224 60 329 1.0 2.0 0.00 0.26 0.26 94 1009.1
20260505150720 60 77 2.0 3.0 0.00 0.26 0.26 95 1009.4
20260505150218 60 260 5.0 7.0 0.00 0.26 0.26 95 1009.2
20260505140651 59 47 0.0 0.0 0.24 0.19 0.19 93 1009.9
20260505140148 59 115 2.0 3.0 0.24 0.17 0.17 93 1010.2
20260505130111 64 18 1.0 1.0 0.00 0.00 0.00 70 1009.4
20260505124601 64 82 2.0 4.0 0.00 0.00 0.00 70 1009.4
20260505124057 64 59 1.0 2.0 0.00 0.00 0.00 71 1009.6
20260505123554 64 29 1.0 1.0 0.00 0.00 0.00 71 1009.5
20260505123050 63 105 2.0 3.0 0.00 0.00 0.00 71 1009.2
20260505122547 63 197 2.0 2.0 0.00 0.00 0.00 71 1009.3
20260505122044 63 54 1.0 1.0 0.00 0.00 0.00 72 1009.0
20260505121540 63 133 2.0 2.0 0.00 0.00 0.00 72 1009.2
20260505121038 63 66 0.0 1.0 0.00 0.00 0.00 72 1009.1
20260505120534 63 79 1.0 1.0 0.00 0.00 0.00 72 1009.0
20260505120029 62 81 1.0 1.0 0.00 0.00 0.00 72 1008.9
20260505115524 62 4 1.0 2.0 0.00 0.00 0.00 72 1008.9
20260505115022 62 257 2.0 2.0 0.00 0.00 0.00 72 1008.7
20260505114519 62 68 1.0 1.0 0.00 0.00 0.00 72 1008.8
20260505114015 62 343 1.0 2.0 0.00 0.00 0.00 72 1008.8
20260505113512 62 12 0.0 1.0 0.00 0.00 0.00 72 1008.8
20260505113009 62 44 0.0 1.0 0.00 0.00 0.00 72 1008.5
20260505112505 62 232 2.0 2.0 0.00 0.00 0.00 72 1008.6
20260505112003 62 51 0.0 0.0 0.00 0.00 0.00 72 1008.6
20260505111502 62 55 0.0 0.0 0.00 0.00 0.00 72 1008.7
20260505110958 62 47 0.0 1.0 0.00 0.00 0.00 71 1008.4
20260505110455 62 60 0.0 0.0 0.00 0.00 0.00 71 1008.4
20260505101927 62 65 0.0 0.0 0.00 0.00 0.00 69 1008.5
20260505101426 63 52 0.0 0.0 0.00 0.00 0.00 69 1008.7
20260505100922 63 64 0.0 0.0 0.00 0.00 0.00 68 1008.6
20260505100420 63 65 0.0 0.0 0.00 0.00 0.00 68 1008.6
20260505095915 63 46 1.0 1.0 0.00 0.00 0.00 68 1008.7
20260505095412 63 46 0.0 0.0 0.00 0.00 0.00 68 1008.7
20260505094908 63 68 0.0 0.0 0.00 0.00 0.00 68 1008.8
20260505094406 63 7 0.0 1.0 0.00 0.00 0.00 67 1008.9
20260505093901 64 54 0.0 0.0 0.00 0.00 0.00 66 1008.9
20260505093359 64 59 0.0 0.0 0.00 0.00 0.00 66 1008.8
20260505092856 64 167 1.0 2.0 0.00 0.00 0.00 66 1008.9
20260505092354 64 66 0.0 0.0 0.00 0.00 0.00 65 1009.0
20260505091851 64 49 0.0 0.0 0.00 0.00 0.00 65 1008.9
20260505091349 64 66 0.0 1.0 0.00 0.00 0.00 65 1008.6
20260505090846 64 59 0.0 0.0 0.00 0.00 0.00 64 1008.6
20260505090345 64 45 1.0 1.0 0.00 0.00 0.00 64 1008.6
20260505085841 64 176 1.0 2.0 0.00 0.00 0.00 64 1008.5
20260505085339 64 93 0.0 1.0 0.00 0.00 0.00 64 1008.6